"Pseudo-MPEC" for LA0A8pi

Created 2025 Oct 15 14:35:09 UT using Find_Orb

Click here for an explanation of pseudo-MPECs

 
 Astrometry: 
     LA0A8pi* C2025 09 23.66514500 49 55.013-00 17 20.69   ~9PEo 19.4 GVNEOCPP07
     LA0A8pi  C2025 09 23.70831100 49 57.619-00 16 07.50   ~9PEo 17.6 GVNEOCPP07
     LA0A8pi  C2025 09 23.75617900 50 00.482-00 14 45.20   ~9PEo 18.9 GVNEOCPP07
     LA0A8pi  C2025 09 23.85008600 50 06.185-00 12 05.40   ~9PEo 19.1 GVNEOCPP07

Station data:
(P07) Space Surveillance Telescope, HEH Station  (S21.895685 E114.089870)
   Australia/WA.  Observers M. Blythe, R. Brungard, P. Festler, T. McVey, J.
   Paige, G. Spitz, L. Banks. Measurers M. Cornell, M. Kotson, R. Rios, J.
   Ruprecht, J. Vaillancourt, J. Varey, H. Viggh, D. Woods. 3.5-m f/1.0
   reflector + CCD.

Orbital elements:  LA0A8pi
   Perihelion 2025 Sep 16.017901 +/- 33.4 TT =  0:25:46.6 (JD 2460934.517901)
Epoch 2025 Sep 24.0 TT = JDT 2460942.5   Earth MOID: 0.2563   Ju: 0.1690
M   1.332792361 +/- 9               Ma: 0.0473                   AutoNEOCP
n   0.166972674 +/- 0.166           Peri.  338.654385 +/- 43
a   3.266172473 +/- 2.16            Node    17.309749 +/- 8
e   0.61448621 +/- 0.212            Incl.    4.312995 +/- 2.1
P   5.90281                H 20.79  G  0.15   U 11.5  SR
q 1.259154497 +/- 0.15    Q 5.273190450 +/- 57.4          (J2000 ecliptic)
From 4 observations 2025 Sept. 23 (4.4 hr); mean residual 0".32
Residuals in arcseconds: 
250923 P07  .41-  .12+    250923 P07  .53+  .29+    
250923 P07  .19+  .34-    250923 P07  .30-  .06-    

Ephemerides (geocentric):
Date (UTC) HH   RA             Dec           delta  r     elong  mag " sig PA
---- --------  ------------   ------------  ------ ------ -----  --- --------
2025 10 15 15  01 10 01.446   +08 52 52.05  .31116 1.3079 177.0 19.1  23d 115
2025 10 15 16  01 10 03.219   +08 53 42.80  .31131 1.3081 177.0 19.1  23d 115
2025 10 15 17  01 10 04.991   +08 54 33.50  .31146 1.3082 177.0 19.1  23d 115
2025 10 15 18  01 10 06.762   +08 55 24.14  .31161 1.3083 177.0 19.1  23d 115
2025 10 15 19  01 10 08.532   +08 56 14.74  .31177 1.3085 176.9 19.1  23d 115
2025 10 15 20  01 10 10.301   +08 57 05.28  .31192 1.3086 176.9 19.1  23d 115
2025 10 15 21  01 10 12.069   +08 57 55.77  .31207 1.3087 176.9 19.1  23d 115
2025 10 15 22  01 10 13.836   +08 58 46.21  .31222 1.3089 176.8 19.1  24d 115
2025 10 15 23  01 10 15.603   +08 59 36.60  .31238 1.3090 176.8 19.1  24d 115
2025 10 16 00  01 10 17.368   +09 00 26.93  .31253 1.3091 176.8 19.1  24d 115
2025 10 16 01  01 10 19.132   +09 01 17.22  .31268 1.3093 176.7 19.1  24d 115
2025 10 16 02  01 10 20.895   +09 02 07.45  .31284 1.3094 176.7 19.1  24d 115
2025 10 16 03  01 10 22.657   +09 02 57.63  .31299 1.3096 176.7 19.1  24d 115
2025 10 16 04  01 10 24.418   +09 03 47.76  .31315 1.3097 176.6 19.1  24d 115
2025 10 16 05  01 10 26.178   +09 04 37.84  .31330 1.3098 176.6 19.1  24d 115
2025 10 16 06  01 10 27.938   +09 05 27.87  .31346 1.3100 176.6 19.1  24d 115
2025 10 16 07  01 10 29.696   +09 06 17.85  .31361 1.3101 176.6 19.1  24d 115
2025 10 16 08  01 10 31.453   +09 07 07.77  .31377 1.3102 176.5 19.1  25d 115
2025 10 16 09  01 10 33.210   +09 07 57.64  .31392 1.3104 176.5 19.1  25d 115
2025 10 16 10  01 10 34.966   +09 08 47.47  .31408 1.3105 176.5 19.2  25d 115
2025 10 16 11  01 10 36.720   +09 09 37.24  .31424 1.3106 176.4 19.2  25d 115
2025 10 16 12  01 10 38.474   +09 10 26.95  .31439 1.3108 176.4 19.2  25d 115
2025 10 16 13  01 10 40.227   +09 11 16.62  .31455 1.3109 176.4 19.2  25d 115
2025 10 16 14  01 10 41.979   +09 12 06.24  .31471 1.3111 176.3 19.2  25d 115
2025 10 16 15  01 10 43.730   +09 12 55.80  .31486 1.3112 176.3 19.2  25d 115
2025 10 16 16  01 10 45.480   +09 13 45.32  .31502 1.3113 176.3 19.2  25d 115
2025 10 16 17  01 10 47.230   +09 14 34.78  .31518 1.3115 176.2 19.2  26d 115
2025 10 16 18  01 10 48.978   +09 15 24.19  .31534 1.3116 176.2 19.2  26d 115
2025 10 16 19  01 10 50.726   +09 16 13.55  .31550 1.3117 176.2 19.2  26d 115
2025 10 16 20  01 10 52.473   +09 17 02.86  .31565 1.3119 176.1 19.2  26d 115
2025 10 16 21  01 10 54.218   +09 17 52.11  .31581 1.3120 176.1 19.2  26d 115
2025 10 16 22  01 10 55.964   +09 18 41.32  .31597 1.3122 176.1 19.2  26d 115
2025 10 16 23  01 10 57.708   +09 19 30.47  .31613 1.3123 176.1 19.2  26d 115
2025 10 17 00  01 10 59.451   +09 20 19.58  .31629 1.3124 176.0 19.2  26d 115
2025 10 17 01  01 11 01.194   +09 21 08.63  .31645 1.3126 176.0 19.2  26d 114
2025 10 17 02  01 11 02.936   +09 21 57.63  .31661 1.3127 176.0 19.2  27d 114
2025 10 17 03  01 11 04.677   +09 22 46.58  .31677 1.3129 175.9 19.2  27d 114
2025 10 17 04  01 11 06.417   +09 23 35.48  .31693 1.3130 175.9 19.2  27d 114
2025 10 17 05  01 11 08.157   +09 24 24.32  .31709 1.3131 175.9 19.2  27d 114
2025 10 17 06  01 11 09.895   +09 25 13.12  .31725 1.3133 175.8 19.2  27d 114
2025 10 17 07  01 11 11.633   +09 26 01.87  .31741 1.3134 175.8 19.2  27d 114
2025 10 17 08  01 11 13.370   +09 26 50.56  .31757 1.3135 175.8 19.2  27d 114
2025 10 17 09  01 11 15.106   +09 27 39.20  .31774 1.3137 175.7 19.2  27d 114
2025 10 17 10  01 11 16.842   +09 28 27.79  .31790 1.3138 175.7 19.2  28d 114
2025 10 17 11  01 11 18.577   +09 29 16.33  .31806 1.3140 175.7 19.2  28d 114
2025 10 17 12  01 11 20.311   +09 30 04.82  .31822 1.3141 175.7 19.2  28d 114
2025 10 17 13  01 11 22.044   +09 30 53.26  .31839 1.3143 175.6 19.2  28d 114
2025 10 17 14  01 11 23.777   +09 31 41.65  .31855 1.3144 175.6 19.2  28d 114